Hourly Weather Barma

Today, 6 May, Thursday

Time Temperature Precipitation Wind Pressure Humidity
00:00 +7°C° 0 mm 4 mps 740 mmHg 83%
01:00 +7°C° 0 mm 4 mps 740 mmHg 82%
02:00 +7°C° 0 mm 4 mps 740 mmHg 82%
03:00 +7°C° 0 mm 4 mps 740 mmHg 80%
04:00 +8°C° 0 mm 5 mps 739 mmHg 79%
05:00 +8°C° 0 mm 5 mps 739 mmHg 78%
06:00 +9°C° 0 mm 5 mps 739 mmHg 77%
07:00 +9°C° 0 mm 5 mps 739 mmHg 77%
08:00 +10°C° 0 mm 6 mps 739 mmHg 77%
09:00 +10°C° 0 mm 6 mps 739 mmHg 77%
10:00 +11°C° 0.2 mm 7 mps 739 mmHg 74%
11:00 +12°C° 0.2 mm 7 mps 739 mmHg 71%
12:00 +13°C° 0.2 mm 8 mps 739 mmHg 68%
13:00 +15°C° 0.2 mm 8 mps 739 mmHg 66%
14:00 +15°C° 0.2 mm 9 mps 738 mmHg 64%
15:00 +15°C° 0.2 mm 9 mps 738 mmHg 62%
16:00 +13°C° 0.3 mm 8 mps 738 mmHg 66%
17:00 +12°C° 0.3 mm 7 mps 738 mmHg 70%
18:00 +11°C° 0.3 mm 6 mps 738 mmHg 74%
19:00 +10°C° 0.3 mm 6 mps 738 mmHg 78%
20:00 +9°C° 0.3 mm 6 mps 739 mmHg 82%
21:00 +9°C° 0.3 mm 6 mps 739 mmHg 86%
22:00 +8°C° 0.5 mm 5 mps 739 mmHg 88%
23:00 +8°C° 0.5 mm 4 mps 739 mmHg 89%

Tomorrow, 7 May, Friday

Time Temperature Precipitation Wind Pressure Humidity
00:00 +8°C° 0.5 mm 3 mps 740 mmHg 90%
01:00 +8°C° 0.2 mm 3 mps 740 mmHg 91%
02:00 +8°C° 0.2 mm 3 mps 740 mmHg 92%
03:00 +7°C° 0.2 mm 3 mps 740 mmHg 92%
04:00 +7°C° 0 mm 3 mps 740 mmHg 91%
05:00 +7°C° 0 mm 3 mps 741 mmHg 91%
06:00 +7°C° 0 mm 3 mps 741 mmHg 90%
07:00 +8°C° 0 mm 3 mps 741 mmHg 81%
08:00 +8°C° 0 mm 4 mps 742 mmHg 72%
09:00 +8°C° 0 mm 4 mps 742 mmHg 63%
10:00 +10°C° 0 mm 4 mps 742 mmHg 57%
11:00 +12°C° 0 mm 4 mps 742 mmHg 51%
12:00 +13°C° 0 mm 4 mps 743 mmHg 44%
13:00 +13°C° 0 mm 4 mps 743 mmHg 42%
14:00 +13°C° 0 mm 4 mps 743 mmHg 40%
15:00 +14°C° 0 mm 3 mps 743 mmHg 38%
16:00 +14°C° 0 mm 3 mps 743 mmHg 42%
17:00 +13°C° 0 mm 3 mps 743 mmHg 46%
18:00 +13°C° 0 mm 3 mps 743 mmHg 51%
19:00 +12°C° 0 mm 3 mps 743 mmHg 54%
20:00 +10°C° 0 mm 3 mps 743 mmHg 58%
21:00 +9°C° 0 mm 3 mps 743 mmHg 62%
22:00 +9°C° 0 mm 3 mps 743 mmHg 63%
23:00 +7°C° 0 mm 4 mps 743 mmHg 64%

Day after tomorrow, 8 May, Saturday

Time Temperature Precipitation Wind Pressure Humidity
00:00 +7°C° 0 mm 4 mps 742 mmHg 66%
01:00 +7°C° 0 mm 5 mps 742 mmHg 65%
02:00 +7°C° 0 mm 5 mps 742 mmHg 64%
03:00 +7°C° 0 mm 6 mps 741 mmHg 63%
04:00 +7°C° 0 mm 6 mps 741 mmHg 67%
05:00 +6°C° 0 mm 7 mps 740 mmHg 71%
06:00 +8°C° 0 mm 7 mps 740 mmHg 74%
07:00 +6°C° 1 mm 8 mps 739 mmHg 79%
08:00 +6°C° 1 mm 8 mps 738 mmHg 84%
09:00 +6°C° 1 mm 9 mps 738 mmHg 88%
10:00 +6°C° 0.8 mm 9 mps 738 mmHg 90%
11:00 +7°C° 0.8 mm 8 mps 737 mmHg 91%
12:00 +7°C° 0.8 mm 8 mps 737 mmHg 93%
13:00 +7°C° 1.2 mm 8 mps 736 mmHg 94%
14:00 +9°C° 1.2 mm 7 mps 736 mmHg 94%
15:00 +9°C° 1.2 mm 7 mps 736 mmHg 95%
16:00 +9°C° 0.5 mm 6 mps 736 mmHg 94%
17:00 +9°C° 0.5 mm 5 mps 736 mmHg 93%
18:00 +8°C° 0.5 mm 4 mps 736 mmHg 92%
19:00 +8°C° 0.1 mm 5 mps 736 mmHg 89%
20:00 +8°C° 0.1 mm 5 mps 737 mmHg 87%
21:00 +7°C° 0.1 mm 6 mps 737 mmHg 84%
22:00 +5°C° 0 mm 6 mps 737 mmHg 84%
23:00 +4°C° 0 mm 7 mps 738 mmHg 85%

9 May, Sunday

Time Temperature Precipitation Wind Pressure Humidity
00:00 +3°C° 0 mm 7 mps 738 mmHg 85%
01:00 +3°C° 0 mm 7 mps 739 mmHg 86%
02:00 +3°C° 0 mm 6 mps 739 mmHg 88%
03:00 +3°C° 0 mm 6 mps 740 mmHg 89%
04:00 +3°C° 0 mm 6 mps 740 mmHg 87%
05:00 +3°C° 0 mm 5 mps 741 mmHg 85%
06:00 +3°C° 0 mm 5 mps 742 mmHg 83%
07:00 +5°C° 0 mm 5 mps 742 mmHg 81%
08:00 +5°C° 0 mm 5 mps 743 mmHg 80%
09:00 +5°C° 0 mm 6 mps 743 mmHg 78%
10:00 +6°C° 0 mm 5 mps 744 mmHg 75%
11:00 +6°C° 0 mm 5 mps 744 mmHg 72%
12:00 +7°C° 0 mm 5 mps 745 mmHg 69%
13:00 +7°C° 0 mm 5 mps 745 mmHg 67%
14:00 +7°C° 0 mm 5 mps 746 mmHg 65%
15:00 +8°C° 0 mm 5 mps 746 mmHg 63%
16:00 +8°C° 0 mm 5 mps 747 mmHg 64%
17:00 +8°C° 0 mm 5 mps 747 mmHg 65%
18:00 +8°C° 0 mm 5 mps 748 mmHg 66%
19:00 +7°C° 0 mm 4 mps 748 mmHg 71%
20:00 +7°C° 0 mm 3 mps 749 mmHg 76%
21:00 +5°C° 0 mm 2 mps 750 mmHg 81%
22:00 +5°C° 0 mm 2 mps 750 mmHg 82%
23:00 +5°C° 0 mm 2 mps 750 mmHg 83%

10 May, Monday

Time Temperature Precipitation Wind Pressure Humidity
00:00 +4°C° 0 mm 2 mps 751 mmHg 84%
01:00 +4°C° 0 mm 2 mps 751 mmHg 84%
02:00 +3°C° 0 mm 3 mps 752 mmHg 83%
03:00 +2°C° 0 mm 3 mps 752 mmHg 83%
04:00 +3°C° 0 mm 3 mps 753 mmHg 83%
05:00 +3°C° 0 mm 3 mps 753 mmHg 82%
06:00 +3°C° 0 mm 3 mps 754 mmHg 81%
07:00 +5°C° 0 mm 3 mps 754 mmHg 75%
08:00 +7°C° 0 mm 4 mps 754 mmHg 68%
09:00 +10°C° 0 mm 4 mps 754 mmHg 61%
10:00 +10°C° 0 mm 5 mps 754 mmHg 58%
11:00 +12°C° 0 mm 5 mps 754 mmHg 54%
12:00 +13°C° 0 mm 5 mps 754 mmHg 51%
13:00 +13°C° 0 mm 5 mps 754 mmHg 50%
14:00 +14°C° 0 mm 5 mps 754 mmHg 49%
15:00 +14°C° 0 mm 5 mps 754 mmHg 48%
16:00 +14°C° 0 mm 5 mps 754 mmHg 51%
17:00 +14°C° 0 mm 4 mps 754 mmHg 55%
18:00 +13°C° 0 mm 4 mps 754 mmHg 58%
19:00 +12°C° 0 mm 3 mps 754 mmHg 63%
20:00 +10°C° 0 mm 3 mps 754 mmHg 68%
21:00 +8°C° 0 mm 3 mps 754 mmHg 73%
22:00 +8°C° 0 mm 3 mps 754 mmHg 74%
23:00 +7°C° 0 mm 3 mps 754 mmHg 74%

11 May, Tuesday

Time Temperature Precipitation Wind Pressure Humidity
00:00 +7°C° 0 mm 3 mps 754 mmHg 75%
01:00 +5°C° 0 mm 3 mps 754 mmHg 77%
02:00 +5°C° 0 mm 3 mps 754 mmHg 78%
03:00 +4°C° 0 mm 3 mps 754 mmHg 80%
04:00 +5°C° 0 mm 3 mps 754 mmHg 80%
05:00 +5°C° 0 mm 4 mps 754 mmHg 80%
06:00 +5°C° 0 mm 4 mps 755 mmHg 80%
07:00 +7°C° 0 mm 4 mps 755 mmHg 74%
08:00 +9°C° 0 mm 5 mps 754 mmHg 68%
09:00 +11°C° 0 mm 6 mps 754 mmHg 61%
10:00 +13°C° 0 mm 6 mps 754 mmHg 59%
11:00 +14°C° 0 mm 6 mps 754 mmHg 57%
12:00 +16°C° 0 mm 6 mps 754 mmHg 55%
13:00 +16°C° 0 mm 6 mps 754 mmHg 56%
14:00 +17°C° 0 mm 6 mps 753 mmHg 57%
15:00 +19°C° 0 mm 5 mps 753 mmHg 57%
16:00 +17°C° 0 mm 5 mps 753 mmHg 61%
17:00 +18°C° 0 mm 4 mps 753 mmHg 65%
18:00 +18°C° 0 mm 4 mps 753 mmHg 68%
19:00 +15°C° 0 mm 4 mps 753 mmHg 73%
20:00 +14°C° 0 mm 4 mps 753 mmHg 78%
21:00 +12°C° 0 mm 3 mps 753 mmHg 83%
22:00 +12°C° 0 mm 4 mps 753 mmHg 83%
23:00 +11°C° 0 mm 4 mps 753 mmHg 83%
Show more